Weather in Kuzmovka

Russia / Krasnoyarsk Krai     62°18′43″N   92°06′53″E
temp.,
°C
wind,
m/s
gust,
m/s
humid.,
%
clouds,
%
prec.,
mm/h
press.,
hPa
HPBL,
m
15 may, sat
sat1501:00−1s2693100 0.0 1010179
04:000s2898100 0.4 1007500
07:00+1ssw2499100 2.6 1004142
10:00+2wnw3899100 1.0 1005400
13:00+5nw5861100 1.3 10071859
16:00+4nw5960100 0.1 10111941
19:00+2nw596119 0.2 10131595
22:00−2nw27765 0.0 1015170
16 may, sun
sun1601:00−4wnw15854 0.0 1016108
04:00−5wnw16875 0.0 1018204
07:00−2nw35635 0.0 1019867
10:00+1nw3547100 0.0 10181294
13:00+3nw3539100 0.0 10171638
16:00+4nw35375 0.0 10161959
19:00+3nnw344415 0.0 10161855
22:00−2n22685 0.0 101734
17 may, mon
mon1701:00−4nnw11711 0.0 101718
04:00−5nnw11753 0.0 101817
07:00−1n235618 0.0 1018957
10:00+1nnw344161 0.0 10181627
13:00+4nnw243499 0.0 10182094
16:00+5nw3433100 0.0 10172290
19:00+4nnw343656 0.0 10171957
22:00−1nne115956 0.0 101710
18 may, tue
tue1801:00−2ne11655 0.0 101610
04:00−3ene11695 0.0 101610
07:00+1ne12480 0.0 1015376
10:00+4ne22345 0.0 10141708
13:00+6nne23315 0.0 10132089
16:00+7nne232997 0.0 10122376
19:00+6ne333498 0.0 10121948
22:00+1ene115768 0.0 101210
19 may, wed
wed1901:00−1nne22645 0.0 101314
04:00−2nne116695 0.0 101316
07:00+2nne234792 0.0 1013423
10:00+4nne3334100 0.0 10122241
13:00+5nne3331100 0.0 10122223
16:00+6nne4329100 0.0 10122549
19:00+6ne443335 0.0 10132246
22:00+1nne265823 0.1 1015152